| time (UTC) | temp F | wind direction | speed knots | gust knots | rain 1hr in | rain 24hr in | rain mn in | humidity % | barometer mb |
| 20260507073004 | 66 | 283 | 0.9 | 1.7 | 0.00 | 0.24 | 0.00 | 75 | 1013.0 |
| 20260507071503 | 64 | 0 | 0.0 | 0.0 | 0.00 | 0.24 | 0.00 | 78 | 1013.0 |
| 20260507070009 | 63 | 203 | 0.0 | 2.6 | 0.00 | 0.24 | 0.00 | 81 | 1012.7 |
| 20260507064502 | 61 | 0 | 0.0 | 0.0 | 0.00 | 0.24 | 0.00 | 88 | 1012.7 |
| 20260506221503 | 56 | 0 | 0.0 | 0.0 | 0.00 | 0.28 | 0.00 | 91 | 1010.4 |
| 20260506220005 | 56 | 0 | 0.0 | 0.0 | 0.00 | 0.28 | 0.00 | 91 | 1010.3 |
| 20260506214503 | 56 | 0 | 0.0 | 0.0 | 0.00 | 0.28 | 0.28 | 91 | 1010.2 |
| 20260506213005 | 56 | 0 | 0.0 | 0.0 | 0.00 | 0.28 | 0.28 | 91 | 1010.2 |
| 20260506211503 | 57 | 0 | 0.0 | 0.0 | 0.00 | 0.28 | 0.28 | 90 | 1010.2 |
| 20260506210005 | 58 | 0 | 0.0 | 0.0 | 0.00 | 0.28 | 0.28 | 90 | 1010.2 |
| 20260506204504 | 58 | 0 | 0.0 | 0.0 | 0.00 | 0.28 | 0.28 | 90 | 1010.3 |
| 20260506203006 | 58 | 0 | 0.0 | 0.0 | 0.00 | 0.28 | 0.28 | 90 | 1010.0 |
| 20260506201503 | 58 | 0 | 0.0 | 0.0 | 0.00 | 0.28 | 0.28 | 89 | 1010.0 |
| 20260506200005 | 58 | 0 | 0.0 | 0.0 | 0.00 | 0.28 | 0.28 | 89 | 1009.7 |
| 20260506194503 | 59 | 0 | 0.0 | 0.0 | 0.00 | 0.28 | 0.28 | 89 | 1009.4 |
| 20260506193005 | 59 | 0 | 0.0 | 0.0 | 0.00 | 0.28 | 0.28 | 88 | 1009.3 |
| 20260506191503 | 60 | 0 | 0.0 | 0.0 | 0.00 | 0.28 | 0.28 | 87 | 1009.0 |
| 20260506190007 | 61 | 0 | 0.0 | 0.0 | 0.00 | 0.28 | 0.28 | 87 | 1008.9 |
| 20260506184502 | 62 | 0 | 0.0 | 0.0 | 0.00 | 0.28 | 0.28 | 86 | 1008.9 |
| 20260506183006 | 62 | 0 | 0.0 | 0.0 | 0.00 | 0.28 | 0.28 | 85 | 1008.7 |
| 20260506181503 | 62 | 0 | 0.0 | 0.0 | 0.00 | 0.28 | 0.28 | 85 | 1008.7 |
| 20260506173006 | 63 | 45 | 0.9 | 2.6 | 0.00 | 0.28 | 0.28 | 82 | 1008.3 |
| 20260506171502 | 65 | 23 | 0.9 | 3.5 | 0.00 | 0.28 | 0.28 | 83 | 1008.4 |
| 20260506170005 | 65 | 0 | 0.0 | 0.0 | 0.00 | 0.28 | 0.28 | 84 | 1008.2 |
| 20260506164504 | 65 | 112 | 1.7 | 3.5 | 0.00 | 0.28 | 0.28 | 83 | 1008.2 |
| 20260506163006 | 66 | 117 | 2.6 | 4.3 | 0.00 | 0.28 | 0.28 | 81 | 1008.0 |
| 20260506161503 | 68 | 0 | 0.0 | 0.0 | 0.00 | 0.28 | 0.28 | 77 | 1008.2 |
| 20260506160005 | 68 | 0 | 0.0 | 0.0 | 0.00 | 0.28 | 0.28 | 77 | 1008.3 |
| 20260506154504 | 69 | 94 | 3.5 | 6.1 | 0.00 | 0.28 | 0.28 | 79 | 1008.1 |
| 20260506153005 | 70 | 116 | 2.6 | 5.2 | 0.00 | 0.28 | 0.28 | 79 | 1008.1 |
| 20260506151503 | 68 | 93 | 1.7 | 5.2 | 0.00 | 0.28 | 0.28 | 79 | 1008.1 |
| 20260506150007 | 69 | 112 | 1.7 | 3.5 | 0.00 | 0.28 | 0.28 | 77 | 1008.2 |
| 20260506144503 | 70 | 0 | 0.0 | 0.0 | 0.00 | 0.28 | 0.28 | 74 | 1008.1 |
| 20260506143005 | 71 | 0 | 0.0 | 0.0 | 0.00 | 0.28 | 0.28 | 74 | 1008.2 |
| 20260506141503 | 70 | 183 | 1.7 | 4.3 | 0.00 | 0.28 | 0.28 | 78 | 1008.3 |
| 20260506140006 | 70 | 90 | 0.0 | 1.7 | 0.00 | 0.28 | 0.28 | 82 | 1008.5 |
| 20260506134504 | 67 | 0 | 0.0 | 0.0 | 0.00 | 0.28 | 0.28 | 83 | 1008.8 |
| 20260506133006 | 66 | 112 | 0.0 | 1.7 | 0.00 | 0.28 | 0.28 | 84 | 1008.7 |
| 20260506131503 | 67 | 0 | 0.0 | 0.0 | 0.00 | 0.28 | 0.28 | 83 | 1008.9 |
| 20260506130006 | 66 | 0 | 0.0 | 0.0 | 0.05 | 0.28 | 0.28 | 87 | 1008.9 |
| 20260506124503 | 65 | 0 | 0.0 | 0.0 | 0.21 | 0.28 | 0.28 | 88 | 1009.0 |
| 20260506123006 | 64 | 0 | 0.0 | 0.0 | 0.21 | 0.28 | 0.28 | 89 | 1009.0 |
| 20260506121503 | 62 | 0 | 0.0 | 0.0 | 0.21 | 0.28 | 0.28 | 89 | 1009.0 |
| 20260506120006 | 62 | 111 | 2.6 | 5.2 | 0.16 | 0.24 | 0.23 | 88 | 1009.0 |
| 20260506114503 | 64 | 66 | 0.9 | 3.5 | 0.00 | 0.07 | 0.07 | 86 | 1009.1 |
| 20260506113006 | 65 | 91 | 2.6 | 5.2 | 0.00 | 0.07 | 0.07 | 84 | 1009.3 |
| 20260506111503 | 64 | 120 | 4.3 | 7.0 | 0.00 | 0.07 | 0.07 | 85 | 1009.6 |
| 20260506110005 | 64 | 115 | 2.6 | 4.3 | 0.00 | 0.07 | 0.07 | 84 | 1009.6 |
| 20260506104502 | 66 | 128 | 5.2 | 7.8 | 0.02 | 0.07 | 0.07 | 84 | 1009.7 |
| 20260506103005 | 65 | 108 | 4.3 | 5.2 | 0.02 | 0.07 | 0.07 | 87 | 1009.8 |
| 20260506101503 | 65 | 112 | 4.3 | 4.3 | 0.02 | 0.07 | 0.07 | 88 | 1009.9 |
| 20260506100005 | 63 | 112 | 3.5 | 3.5 | 0.02 | 0.07 | 0.07 | 88 | 1010.0 |
| 20260506094502 | 62 | 80 | 3.5 | 4.3 | 0.00 | 0.07 | 0.05 | 88 | 1010.0 |
| 20260506093006 | 63 | 102 | 6.1 | 7.8 | 0.00 | 0.07 | 0.05 | 88 | 1010.3 |
| 20260506091503 | 62 | 111 | 2.6 | 2.6 | 0.00 | 0.10 | 0.05 | 90 | 1010.2 |
| 20260506090004 | 60 | 112 | 2.6 | 2.6 | 0.00 | 0.10 | 0.05 | 89 | 1010.1 |
| 20260506084503 | 60 | 124 | 2.6 | 3.5 | 0.00 | 0.10 | 0.05 | 89 | 1010.3 |
| 20260506083005 | 61 | 124 | 4.3 | 5.2 | 0.00 | 0.10 | 0.05 | 89 | 1010.2 |
| 20260506081502 | 62 | 101 | 1.7 | 2.6 | 0.00 | 0.10 | 0.05 | 89 | 1010.0 |